Pine River, MN

7:54 AM CDT on June 24, 2017 (GMT -0500)
Pine River Regional

Weather History for KPWC - July, 2013

Change the Weather History Date:

Sunday, July 14, 2013

  Actual Average Record
Temperature  
Mean Temperature 66 °F -  
Max Temperature 69 °F 77 °F 91 °F (2006)
Min Temperature 62 °F 56 °F 44 °F (2008)
Growing Degree Days 16 (Base 50)    
Moisture  
Dew Point 64 °F    
Average Humidity 93    
Maximum Humidity 100    
Minimum Humidity 78    
Precipitation  
Precipitation 2.15 in - - ()
Sea Level Pressure  
Sea Level Pressure 30.16 in    
Wind  
Wind Speed 4 mph (SSE)    
Max Wind Speed 9 mph    
Max Gust Speed -    
Visibility 6 miles    
Events Rain , Thunderstorm    
Averages and records for this station are not official NWS values.
T = Trace of Precipitation, MM = Missing Value Source: NWS Daily Summary

Daily Weather History Graph

Daily Weather History Graph

Search for Another Location

Airport or City:

Trip Planner

Search our weather history database for the weather conditions in past years. The results will help you decide how hot, cold, wet, or windy it might be!

Date:

Astronomy

Jul. 14, 2013 Rise Set
Actual Time 5:38 AM CDT 9:08 PM CDT
Civil Twilight 5:00 AM CDT 9:45 PM CDT
Nautical Twilight 4:10 AM CDT 10:35 PM CDT
Astronomical Twilight 3:03 AM CDT 11:41 PM CDT
Moon 12:23 PM CDT (7/14) 11:52 PM CDT (7/14)
Length of Visible Light 16h 45m
Length of Day
15h 30m
Waxing Crescent, 35% of the Moon is Illuminated
Jul 14
Waxing Crescent
Jul 15
First Quarter
Jul 22
Full
Jul 29
Last Quarter
Aug 6
New

Hourly Weather History & Observations

Time (CDT) Temp. Dew Point Humidity Pressure Visibility Wind Dir Wind Speed Gust Speed Precip Events Conditions
12:12 AM 69.8 °F 62.6 °F 78% 30.08 in 10.0 mi South 6.9 mph - N/A   Clear
12:33 AM 69.8 °F 62.6 °F 78% 30.08 in 10.0 mi SSE 6.9 mph - N/A   Clear
12:53 AM 69.8 °F 62.6 °F 78% 30.08 in 10.0 mi South 5.8 mph - N/A   Clear
1:12 AM 69.8 °F 62.6 °F 78% 30.08 in 10.0 mi SSE 5.8 mph - N/A   Clear
1:33 AM 69.8 °F 62.6 °F 78% 30.08 in 10.0 mi South 4.6 mph - N/A   Clear
1:53 AM 69.8 °F 62.6 °F 78% 30.08 in 10.0 mi SSE 5.8 mph - N/A   Clear
2:12 AM 68.0 °F 62.6 °F 83% 30.07 in 10.0 mi South 5.8 mph - N/A   Clear
2:33 AM 68.0 °F 62.6 °F 83% 30.07 in 10.0 mi SSE 4.6 mph - N/A   Clear
2:52 AM 68.0 °F 60.8 °F 78% 30.08 in 10.0 mi South 5.8 mph - N/A   Clear
3:13 AM 66.2 °F 60.8 °F 83% 30.08 in 10.0 mi SSE 4.6 mph - N/A   Clear
3:33 AM 66.2 °F 60.8 °F 83% 30.08 in 10.0 mi Calm Calm - N/A   Clear
3:53 AM 66.2 °F 60.8 °F 83% 30.08 in 10.0 mi Calm Calm - N/A   Scattered Clouds
4:13 AM 66.2 °F 60.8 °F 83% 30.09 in 10.0 mi Calm Calm - N/A   Mostly Cloudy
4:33 AM 66.2 °F 60.8 °F 83% 30.09 in 10.0 mi Calm Calm - N/A   Overcast
4:53 AM 66.2 °F 60.8 °F 83% 30.09 in 10.0 mi Calm Calm - N/A   Overcast
5:13 AM 66.2 °F 60.8 °F 83% 30.07 in 10.0 mi Calm Calm - N/A   Mostly Cloudy
5:33 AM 64.4 °F 60.8 °F 88% 30.08 in 10.0 mi SE 4.6 mph - N/A   Clear
5:53 AM 64.4 °F 60.8 °F 88% 30.08 in 10.0 mi SE 5.8 mph - N/A   Scattered Clouds
6:13 AM 64.4 °F 60.8 °F 88% 30.07 in 10.0 mi SE 5.8 mph - N/A   Mostly Cloudy
6:33 AM 64.4 °F 60.8 °F 88% 30.09 in 10.0 mi SSE 3.5 mph - N/A Thunderstorm Scattered Clouds
6:53 AM 66.2 °F 60.8 °F 83% 30.10 in 10.0 mi SSE 6.9 mph - N/A Thunderstorm Clear
7:13 AM 66.2 °F 60.8 °F 83% 30.11 in 10.0 mi SSE 8.1 mph - N/A   Mostly Cloudy
7:33 AM 66.2 °F 60.8 °F 83% 30.10 in 10.0 mi South 5.8 mph - N/A Thunderstorm Mostly Cloudy
7:53 AM 66.2 °F 60.8 °F 83% 30.10 in 10.0 mi SSE 8.1 mph - N/A Thunderstorm Overcast
8:13 AM 66.2 °F 60.8 °F 83% 30.12 in 10.0 mi South 5.8 mph - N/A Thunderstorm Thunderstorm
8:33 AM 64.4 °F 60.8 °F 88% 30.13 in 10.0 mi SSE 9.2 mph - N/A Thunderstorm Thunderstorm
8:53 AM 64.4 °F 60.8 °F 88% 30.14 in 10.0 mi South 5.8 mph - N/A Rain , Thunderstorm Rain
9:13 AM 64.4 °F 60.8 °F 88% 30.15 in 7.0 mi South 5.8 mph - 0.04 in Rain , Thunderstorm Light Thunderstorms and Rain
9:33 AM 62.6 °F 62.6 °F 100% 30.16 in 1.2 mi Calm Calm - 0.30 in Rain , Thunderstorm Heavy Thunderstorms and Rain
9:53 AM 62.6 °F 62.6 °F 100% 30.16 in 1.0 mi SSE 4.6 mph - 0.20 in Rain , Thunderstorm Heavy Thunderstorms and Rain
10:13 AM 62.6 °F 62.6 °F 100% 30.16 in 1.8 mi Calm Calm - 0.43 in Rain , Thunderstorm Heavy Thunderstorms and Rain
10:33 AM 62.6 °F 62.6 °F 100% 30.17 in 2.5 mi Calm Calm - 0.55 in Rain Rain
10:53 AM 62.6 °F 62.6 °F 100% 30.17 in 4.0 mi Calm Calm - 0.03 in Rain Rain
11:13 AM 62.6 °F 62.6 °F 100% 30.17 in 1.0 mi Calm Calm - 0.18 in Rain Heavy Rain
11:33 AM 62.6 °F 62.6 °F 100% 30.17 in 2.5 mi Calm Calm - 0.26 in Rain Rain
11:53 AM 62.6 °F 62.6 °F 100% 30.17 in 1.2 mi Calm Calm - 0.05 in Rain Heavy Rain
12:12 PM 62.6 °F 62.6 °F 100% 30.17 in 2.0 mi ESE 4.6 mph - 0.25 in Rain Heavy Rain
12:33 PM 64.4 °F 64.4 °F 100% 30.16 in 5.0 mi SE 5.8 mph - 0.35 in Rain Rain
12:53 PM 64.4 °F 64.4 °F 100% 30.17 in 5.0 mi SSE 8.1 mph - 0.01 in Rain Light Rain
1:12 PM 64.4 °F 64.4 °F 100% 30.17 in 4.0 mi South 4.6 mph - 0.03 in Rain Rain
1:33 PM 64.4 °F 64.4 °F 100% 30.18 in 5.0 mi South 3.5 mph - 0.07 in Rain Rain
1:53 PM 64.4 °F 64.4 °F 100% 30.19 in 5.0 mi South 8.1 mph - 0.02 in Rain Rain
2:13 PM 64.4 °F 64.4 °F 100% 30.20 in 4.0 mi SSW 3.5 mph - 0.11 in Rain Rain
2:33 PM 64.4 °F 64.4 °F 100% 30.19 in 3.0 mi Calm Calm - 0.18 in Rain Rain
2:53 PM 64.4 °F 64.4 °F 100% 30.19 in 4.0 mi Calm Calm - 0.01 in Rain Rain
3:13 PM 64.4 °F 64.4 °F 100% 30.19 in 7.0 mi South 3.5 mph - 0.03 in Rain Light Rain
3:33 PM 66.2 °F 66.2 °F 100% 30.20 in 7.0 mi SSW 4.6 mph - 0.05 in Rain Light Rain
3:52 PM 66.2 °F 66.2 °F 100% 30.20 in 7.0 mi Calm Calm - N/A Rain Rain
4:13 PM 64.4 °F 64.4 °F 100% 30.20 in 5.0 mi South 4.6 mph - 0.04 in Rain Rain
4:33 PM 64.4 °F 64.4 °F 100% 30.20 in 5.0 mi Calm Calm - 0.09 in Rain Rain
4:52 PM 64.4 °F 64.4 °F 100% 30.21 in 7.0 mi Calm Calm - N/A Rain Light Rain
5:13 PM 64.4 °F 64.4 °F 100% 30.21 in 3.0 mi Calm Calm - 0.03 in Rain Rain
5:32 PM 64.4 °F 64.4 °F 100% 30.20 in 1.8 mi Calm Calm - 0.12 in Rain Rain
5:53 PM 66.2 °F 66.2 °F 100% 30.20 in 2.5 mi Calm Calm - 0.02 in Rain Rain
6:13 PM 66.2 °F 66.2 °F 100% 30.20 in 4.0 mi Calm Calm - 0.04 in Rain Rain
6:33 PM 66.2 °F 66.2 °F 100% 30.20 in 4.0 mi Calm Calm - 0.05 in Rain Light Rain
6:53 PM 66.2 °F 66.2 °F 100% 30.20 in 4.0 mi South 3.5 mph - N/A Rain Light Rain
7:12 PM 66.2 °F 66.2 °F 100% 30.21 in 7.0 mi Calm Calm - 0.01 in Rain Rain
7:33 PM 66.2 °F 66.2 °F 100% 30.21 in 7.0 mi Calm Calm - 0.01 in   Light Drizzle
7:52 PM 66.2 °F 66.2 °F 100% 30.21 in 5.0 mi Calm Calm - N/A   Light Drizzle
8:13 PM 66.2 °F 66.2 °F 100% 30.21 in 4.0 mi Calm Calm - N/A   Drizzle
8:32 PM 66.2 °F 66.2 °F 100% 30.21 in 3.0 mi Calm Calm - 0.03 in Rain Heavy Rain
8:53 PM 66.2 °F 66.2 °F 100% 30.21 in 4.0 mi Calm Calm - N/A   Overcast
9:13 PM 66.2 °F 66.2 °F 100% 30.22 in 2.5 mi Calm Calm - N/A   Drizzle
9:32 PM 66.2 °F 66.2 °F 100% 30.23 in 4.0 mi Calm Calm - N/A   Overcast
9:53 PM 66.2 °F 66.2 °F 100% 30.24 in 5.0 mi Calm Calm - N/A   Overcast
10:13 PM 66.2 °F 66.2 °F 100% 30.24 in 7.0 mi Calm Calm - N/A   Overcast
10:32 PM 66.2 °F 66.2 °F 100% 30.24 in 5.0 mi Calm Calm - N/A   Overcast
10:53 PM 66.2 °F 66.2 °F 100% 30.24 in 2.0 mi Calm Calm - 0.02 in Rain Heavy Rain
11:13 PM 66.2 °F 66.2 °F 100% 30.25 in 2.0 mi Calm Calm - 0.05 in   Heavy Drizzle
11:32 PM 66.2 °F 66.2 °F 100% 30.25 in 2.5 mi SSE 3.5 mph - 0.07 in   Heavy Drizzle
11:53 PM 66.2 °F 66.2 °F 100% 30.25 in 2.5 mi SE 3.5 mph - 0.01 in   Heavy Drizzle